When you browse on this site, cookies collect data to enhance your experience and personalize the content and advertising you see.
Visit our Privacy Policy to learn more. By continuing to use the site, you agree to this use of cookies and data.
  • In Portugal
  • List of Countries
  • For 7 days
  • Water Temperature
  • Satellite Maps
  • Weather Map
  • Weather Widgets
  • user-avatar
    Login

    Hourly Weather Malanje

    Today, 25 May, Saturday

    Time Temperature Precipitation Wind Pressure Humidity
    00:00 +23°C° 0 mm 1 mps 666 mmHg 52%
    01:00 +20°C° 0 mm 0 mps 666 mmHg 59%
    02:00 +22°C° 0 mm 1 mps 666 mmHg 60%
    03:00 +21°C° 0 mm 1 mps 665 mmHg 60%
    04:00 +20°C° 0 mm 1 mps 665 mmHg 60%
    05:00 +20°C° 0 mm 1 mps 665 mmHg 60%
    06:00 +19°C° 0 mm 2 mps 666 mmHg 60%
    07:00 +19°C° 0 mm 2 mps 666 mmHg 59%
    08:00 +22°C° 0 mm 3 mps 667 mmHg 51%
    09:00 +26°C° 0 mm 3 mps 667 mmHg 42%
    10:00 +28°C° 0 mm 4 mps 668 mmHg 33%
    11:00 +30°C° 0 mm 4 mps 667 mmHg 30%
    12:00 +32°C° 0 mm 4 mps 667 mmHg 28%
    13:00 +33°C° 0 mm 4 mps 666 mmHg 25%
    14:00 +33°C° 0 mm 3 mps 666 mmHg 27%
    15:00 +33°C° 0 mm 3 mps 665 mmHg 28%
    16:00 +31°C° 0 mm 2 mps 665 mmHg 29%
    17:00 +29°C° 0 mm 2 mps 665 mmHg 33%
    18:00 +27°C° 0 mm 2 mps 665 mmHg 37%
    19:00 +24°C° 0 mm 1 mps 665 mmHg 41%
    20:00 +23°C° 0 mm 1 mps 665 mmHg 41%
    21:00 +23°C° 0 mm 1 mps 665 mmHg 41%
    22:00 +22°C° 0 mm 1 mps 665 mmHg 42%
    23:00 +21°C° 0 mm 2 mps 665 mmHg 43%

    Tomorrow, 26 May, Sunday

    Time Temperature Precipitation Wind Pressure Humidity
    00:00 +20°C° 0 mm 2 mps 665 mmHg 44%
    01:00 +19°C° 0 mm 2 mps 665 mmHg 46%
    02:00 +19°C° 0 mm 2 mps 665 mmHg 48%
    03:00 +19°C° 0 mm 2 mps 665 mmHg 49%
    04:00 +18°C° 0 mm 2 mps 665 mmHg 51%
    05:00 +18°C° 0 mm 3 mps 665 mmHg 51%
    06:00 +18°C° 0 mm 3 mps 665 mmHg 51%
    07:00 +18°C° 0 mm 3 mps 666 mmHg 51%
    08:00 +20°C° 0 mm 4 mps 666 mmHg 47%
    09:00 +23°C° 0 mm 4 mps 667 mmHg 42%
    10:00 +26°C° 0 mm 4 mps 667 mmHg 37%
    11:00 +27°C° 0 mm 4 mps 667 mmHg 34%
    12:00 +29°C° 0 mm 3 mps 667 mmHg 31%
    13:00 +30°C° 0 mm 3 mps 667 mmHg 29%
    14:00 +30°C° 0 mm 2 mps 666 mmHg 30%
    15:00 +30°C° 0 mm 2 mps 665 mmHg 32%
    16:00 +30°C° 0 mm 1 mps 665 mmHg 33%
    17:00 +27°C° 0 mm 1 mps 665 mmHg 37%
    18:00 +25°C° 0 mm 1 mps 665 mmHg 40%
    19:00 +23°C° 0 mm 1 mps 664 mmHg 43%
    20:00 +23°C° 0 mm 1 mps 665 mmHg 43%
    21:00 +22°C° 0 mm 1 mps 665 mmHg 43%
    22:00 +21°C° 0 mm 1 mps 665 mmHg 43%
    23:00 +21°C° 0 mm 1 mps 665 mmHg 44%

    Day after tomorrow, 27 May, Monday

    Time Temperature Precipitation Wind Pressure Humidity
    00:00 +20°C° 0 mm 1 mps 665 mmHg 46%
    01:00 +19°C° 0 mm 1 mps 664 mmHg 47%
    02:00 +18°C° 0 mm 1 mps 664 mmHg 49%
    03:00 +18°C° 0 mm 1 mps 664 mmHg 50%
    04:00 +16°C° 0 mm 1 mps 664 mmHg 52%
    05:00 +16°C° 0 mm 2 mps 664 mmHg 53%
    06:00 +17°C° 0 mm 2 mps 664 mmHg 54%
    07:00 +17°C° 0 mm 2 mps 665 mmHg 55%
    08:00 +20°C° 0 mm 2 mps 666 mmHg 50%
    09:00 +24°C° 0 mm 3 mps 666 mmHg 45%
    10:00 +27°C° 0 mm 3 mps 667 mmHg 39%
    11:00 +29°C° 0 mm 2 mps 667 mmHg 35%
    12:00 +31°C° 0 mm 2 mps 666 mmHg 30%
    13:00 +32°C° 0 mm 1 mps 666 mmHg 26%
    14:00 +32°C° 0 mm 1 mps 665 mmHg 26%
    15:00 +32°C° 0 mm 1 mps 665 mmHg 26%
    16:00 +29°C° 0 mm 0 mps 664 mmHg 27%
    17:00 +27°C° 0 mm 0 mps 664 mmHg 31%
    18:00 +24°C° 0 mm 0 mps 664 mmHg 35%
    19:00 +22°C° 0 mm 0 mps 664 mmHg 39%
    20:00 +21°C° 0 mm 0 mps 664 mmHg 40%
    21:00 +21°C° 0 mm 0 mps 664 mmHg 41%
    22:00 +20°C° 0 mm 0 mps 665 mmHg 43%
    23:00 +19°C° 0 mm 0 mps 665 mmHg 45%

    28 May, Tuesday

    Time Temperature Precipitation Wind Pressure Humidity
    00:00 +18°C° 0 mm 0 mps 664 mmHg 48%
    01:00 +20°C° 0 mm 1 mps 664 mmHg 50%
    02:00 +19°C° 0 mm 1 mps 664 mmHg 52%
    03:00 +19°C° 0 mm 1 mps 664 mmHg 53%
    04:00 +18°C° 0 mm 1 mps 663 mmHg 55%
    05:00 +17°C° 0 mm 0 mps 664 mmHg 56%
    06:00 +17°C° 0 mm 0 mps 665 mmHg 57%
    07:00 +17°C° 0 mm 0 mps 665 mmHg 58%
    08:00 +22°C° 0 mm 1 mps 666 mmHg 50%
    09:00 +25°C° 0 mm 1 mps 667 mmHg 42%
    10:00 +28°C° 0 mm 2 mps 668 mmHg 34%
    11:00 +30°C° 0 mm 1 mps 667 mmHg 32%
    12:00 +32°C° 0 mm 1 mps 667 mmHg 30%
    13:00 +34°C° 0 mm 1 mps 667 mmHg 29%
    14:00 +31°C° 0 mm 0 mps 666 mmHg 29%
    15:00 +30°C° 0 mm 0 mps 665 mmHg 30%
    16:00 +29°C° 0 mm 0 mps 665 mmHg 30%
    17:00 +27°C° 0 mm 0 mps 665 mmHg 35%
    18:00 +25°C° 0 mm 0 mps 665 mmHg 39%
    19:00 +25°C° 0 mm 1 mps 665 mmHg 44%
    20:00 +25°C° 0 mm 1 mps 665 mmHg 47%
    21:00 +24°C° 0 mm 1 mps 666 mmHg 51%
    22:00 +23°C° 0 mm 1 mps 666 mmHg 55%
    23:00 +22°C° 0 mm 1 mps 666 mmHg 60%

    29 May, Wednesday

    Time Temperature Precipitation Wind Pressure Humidity
    00:00 +22°C° 0 mm 1 mps 665 mmHg 65%
    01:00 +20°C° 0 mm 2 mps 665 mmHg 70%
    02:00 +20°C° 0 mm 1 mps 664 mmHg 76%
    03:00 +19°C° 0 mm 1 mps 664 mmHg 82%
    04:00 +19°C° 0 mm 1 mps 664 mmHg 89%
    05:00 +19°C° 0 mm 1 mps 664 mmHg 89%
    06:00 +19°C° 0 mm 1 mps 665 mmHg 89%
    07:00 +19°C° 0 mm 1 mps 665 mmHg 90%
    08:00 +22°C° 0 mm 1 mps 666 mmHg 77%
    09:00 +25°C° 0 mm 1 mps 667 mmHg 64%
    10:00 +28°C° 0 mm 1 mps 668 mmHg 51%
    11:00 +30°C° 0 mm 1 mps 667 mmHg 44%
    12:00 +32°C° 0 mm 1 mps 667 mmHg 37%
    13:00 +32°C° 0 mm 0 mps 666 mmHg 31%
    14:00 +31°C° 0 mm 0 mps 666 mmHg 31%
    15:00 +30°C° 0 mm 0 mps 665 mmHg 31%
    16:00 +29°C° 0 mm 0 mps 664 mmHg 31%
    17:00 +27°C° 0 mm 0 mps 664 mmHg 35%
    18:00 +27°C° 0 mm 1 mps 664 mmHg 40%
    19:00 +25°C° 0 mm 1 mps 665 mmHg 45%
    20:00 +24°C° 0 mm 1 mps 665 mmHg 49%
    21:00 +23°C° 0 mm 1 mps 665 mmHg 53%
    22:00 +22°C° 0 mm 1 mps 665 mmHg 58%
    23:00 +22°C° 0 mm 1 mps 665 mmHg 61%

    30 May, Thursday

    Time Temperature Precipitation Wind Pressure Humidity
    00:00 +21°C° 0 mm 1 mps 665 mmHg 65%
    01:00 +21°C° 0 mm 1 mps 665 mmHg 68%
    02:00 +20°C° 0 mm 1 mps 665 mmHg 71%
    03:00 +20°C° 0 mm 1 mps 664 mmHg 74%
    04:00 +17°C° 0 mm 0 mps 664 mmHg 76%
    05:00 +18°C° 0 mm 0 mps 665 mmHg 76%
    06:00 +18°C° 0 mm 0 mps 665 mmHg 76%
    07:00 +18°C° 0 mm 0 mps 666 mmHg 75%
    08:00 +22°C° 0 mm 0 mps 667 mmHg 64%
    09:00 +25°C° 0 mm 0 mps 667 mmHg 54%
    10:00 +31°C° 0 mm 1 mps 668 mmHg 43%
    11:00 +30°C° 0 mm 0 mps 668 mmHg 39%
    12:00 +31°C° 0 mm 0 mps 667 mmHg 35%
    13:00 +33°C° 0 mm 0 mps 667 mmHg 32%
    14:00 +31°C° 0 mm 0 mps 666 mmHg 35%
    15:00 +31°C° 0 mm 1 mps 665 mmHg 38%
    16:00 +30°C° 0 mm 1 mps 664 mmHg 41%
    17:00 +28°C° 0 mm 1 mps 665 mmHg 43%
    18:00 +27°C° 0 mm 1 mps 665 mmHg 45%
    19:00 +26°C° 0 mm 1 mps 665 mmHg 48%
    20:00 +25°C° 0 mm 1 mps 666 mmHg 50%
    21:00 +24°C° 0 mm 1 mps 666 mmHg 52%
    22:00 +24°C° 0 mm 1 mps 666 mmHg 54%
    23:00 +22°C° 0 mm 1 mps 665 mmHg 58%
    Show more